Regional Weather Roundup
Issued by NWS

Home | Current Version | Previous Version | Graphics & Text | Print | Product List | Glossary On
Versions: 1 2 3 4 5 6 7 8 9 10 11 12 13 14 15 16 17 18 19 20 21 22 23 24 25 26 27 28 29 30 31 32 33 34 35 36 37 38 39 40 41 42 43 44 45 46 47 48 49 50
000
ASUS43 KMPX 290501
RWRMN
WEATHER ROUNDUP FOR MINNESOTA
NATIONAL WEATHER SERVICE TWIN CITIES/CHANHASSEN MN
1200 AM CDT SUN MAR 29 2015


NOTE: "FAIR" INDICATES FEW OR NO CLOUDS BELOW 12,000 FEET WITH NO
SIGNIFICANT WEATHER AND/OR OBSTRUCTIONS TO VISIBILITY. N/A MEANS
CURRENT SKY AND/OR WEATHER CONDITIONS ARE NOT AVAILABLE.

MNZ060>063-068>070-290600-
   Twin Cities Metro

CITY           SKY/WX    TMP DP  RH WIND       PRES   REMARKS
TWIN CITIES    PTCLDY    36  21  54 S16G24    29.92F
ST PAUL        MOCLDY    35  22  58 SE14      29.94F WCI  26
CRYSTAL        PTCLDY    37  21  52 S16G23    29.89F
BLAINE         PTCLDY    37  21  52 S17G24    29.90F
LAKEVILLE      PTCLDY    34  21  60 S12       29.93F WCI  25
EDEN PRAIRIE   CLEAR     38  20  48 S18G25    29.89F
SOUTH ST PAUL  PTCLDY    37  20  52 S14       29.94F
LAKE ELMO      FAIR      36  21  55 S17G26    29.94F
$$
MNZ001>005-007-008-013>017-022>024-027-028-290600-
   Northwest Minnesota

CITY           SKY/WX    TMP DP  RH WIND       PRES   REMARKS
BEMIDJI        MOCLDY    38  26  63 S16G25    29.65F
HALLOCK        LGT RAIN  39  36  87 S20       29.51F
ROSEAU         DRIZZLE   39  32  75 S22G28    29.57F
WARROAD        CLOUDY    39  30  70 S13G21    29.59F
THIEF RVR FALL CLOUDY    39  30  70 S18G25    29.60F
CROOKSTON      CLOUDY    43  32  65 S31G38    29.60F
FOSSTON        MOCLDY    39  27  60 SW18G28   29.73R
DETROIT LAKES  CLOUDY    41  30  65 S21G26    29.64F
MOORHEAD       CLOUDY    45  30  57 SW16G22   29.76R
PARK RAPIDS    PTCLDY    39  26  59 S17G26    29.69F
MAHNOMEN       FAIR      40  28  62 S22G32    29.60F
$$
MNZ006-009>011-018-025>026-290600-
   North Central Minnesota

CITY           SKY/WX    TMP DP  RH WIND       PRES   REMARKS
BAUDETTE       CLOUDY    39  27  62 S16G26    29.63F
FLAG ISLAND    CLOUDY    36  28  75 S20       29.58F
INTL FALLS     CLOUDY    38  22  52 S13G20    29.68F
WASKISH        MOCLDY    39  27  60 SW10G18   29.69R
BIG FORK       CLOUDY    36  23  60 S16G28    29.71F
LONGVILLE      MOCLDY    36  25  64 S15G24    29.73F
GRAND RAPIDS   PTCLDY    36  21  55 S21       29.76F
ORR            CLOUDY    36  18  48 S13G25    29.71F
COOK           CLOUDY    36  19  51 S13G22    29.76F
WALKER         FAIR      38  25  60 S14G22    29.70F
$$
MNZ012-019>021-037-290600-
   Northeast Minnesota

CITY           SKY/WX    TMP DP  RH WIND       PRES   REMARKS
DULUTH         MOCLDY    34  18  52 S16       29.84F WCI  24
ELY            CLOUDY    34  18  51 S18       29.78F WCI  23
HIBBING        MOCLDY    34  19  54 S10G18    29.78F WCI  26
EVELETH        CLOUDY    34  19  55 S14G21    29.80F WCI  24
DULUTH HARBOR  CLOUDY    36  19  51 S9        29.88F
TWO HARBORS    MOCLDY    36  21  55 SW9       29.85F
SILVER BAY     MOCLDY    36  19  51 S10       29.85F
GRAND MARAIS     N/A     28  21  75 W3        29.88F
G MARAIS ARPRT PTCLDY    28  16  59 S14       29.83F WCI  17
$$
MNZ029>031-032-039>041-046>048-054>057-064-290600-
   West Central Minnesota

CITY           SKY/WX    TMP DP  RH WIND       PRES   REMARKS
FERGUS FALLS   PTCLDY    41  25  52 S25G32    29.68F
WHEATON        PTCLDY    37  28  70 SE22G29   29.65F
MORRIS         PTCLDY    37  30  75 SE21      29.68F
ALEXANDRIA     CLOUDY    40  27  59 S21G32    29.73F
ELBOW LAKE     FAIR      38  29  69 S26G36    29.67F
WADENA         MOCLDY    37  27  65 S16G22    29.71F
GLENWOOD       MOCLDY    39  27  60 S23G32    29.75F
APPLETON       PTCLDY    39  28  65 SE15      29.71F
BENSON         MOCLDY    37  28  70 S20G26    29.74F
ORTONVILLE     PTCLDY    37  28  70 S13       29.67F
MADISON        PTCLDY    45  28  53 S22       29.70F
WILLMAR        FAIR      37  27  65 S18       29.81F
$$
MNZ033>034-036-042>043-049>051-058-059-290600-
   Central Minnesota

CITY           SKY/WX    TMP DP  RH WIND       PRES   REMARKS
ST CLOUD       PTCLDY    36  23  59 S16G24    29.84F
SAUK CENTRE    FAIR      36  27  69 S17G24    29.78F
PAYNESVILLE    PTCLDY    35  25  66 SE18G28   29.81F WCI  24
AITKIN         PTCLDY    36  25  64 S14G22    29.78F
PINE RIVER     MOCLDY    36  25  64 S14       29.79F
BRAINERD       MOCLDY    36  23  59 S20       29.79F
STAPLES        MOCLDY    37  25  60 S16G29    29.74F
LONG PRAIRIE   FAIR      36  27  69 SE22G28   29.77F
LITTLE FALLS   MOCLDY    36  23  60 S16       29.80F
LITCHFIELD     CLEAR     37  27  65 S5        29.83F
BUFFALO        FAIR      36  23  60 SE12      29.88F
MAPLE LAKE     CLEAR     36  27  68 SE10G17   29.87F
$$
MNZ037-044-045-052-053-290600-
   East Central Minnesota

CITY           SKY/WX    TMP DP  RH WIND       PRES   REMARKS
PRINCETON      CLEAR     37  23  56 SE12      29.87F
MORA           PTCLDY    34  21  60 S10       29.88F WCI  26
CAMBRIDGE      PTCLDY    37  23  56 SE10      29.87F
RUSH CITY      MOCLDY    33  21  60 S10       29.89F WCI  25
MOOSE LAKE     PTCLDY    32  19  59 S7G16     29.84F WCI  26
HINCKLEY       FAIR      34  21  60 S14G21    29.88F WCI  24
CLOQUET        MOCLDY    34  18  51 S13G21    29.84F WCI  25
MCGREGOR       PTCLDY    34  23  64 S17G25    29.81F WCI  23
$$
MNZ071>073-080-081-089-090-097-098-290600-
   Southwest Minnesota

CITY           SKY/WX    TMP DP  RH WIND       PRES   REMARKS
MONTEVIDEO     PTCLDY    39  30  70 S14       29.76F
GRANITE FALLS  PTCLDY    39  29  68 SE21G26   29.79F
CANBY          CLEAR     44  29  56 S20G26    29.72F
MARSHALL       CLEAR    N/A N/A N/A S26G35    29.75F
REDWOOD FALLS  CLEAR     38  28  67 S18       29.81F
OLIVIA         PTCLDY    36  28  75 S16G22    29.80F
PIPESTONE      CLEAR     39  28  65 S24G31    29.74F
WINDOM         CLEAR     39  28  65 S22G33    29.83F
WORTHINGTON    CLEAR     37  27  65 S21G31    29.83F
JACKSON        CLEAR     37  28  70 S26G32    29.86F
TRACY          CLEAR     40  29  65 S22G30    29.75F
SLAYTON        CLEAR     38  27  63 S25G32    29.79F
$$
MNZ065>067-074>077-082>085-091>093-290600-
   South Central Minnesota

CITY           SKY/WX    TMP DP  RH WIND       PRES   REMARKS
MANKATO        CLEAR     36  21  55 S16G28    29.90F
NEW ULM        CLEAR     36  23  60 S22       29.85F
ST JAMES       CLEAR     37  27  65 SE21      29.87F
FAIRMONT       CLEAR     36  21  55 S21       29.88F
GLENCOE        CLEAR     37  27  66 S13G20    29.86F
FARIBAULT      PTCLDY    36  21  55 S18G25    29.94F
OWATONNA       PTCLDY    36  19  51 S20G26    29.95F
WASECA         CLEAR     37  23  56 S18G24    29.95F
ALBERT LEA     PTCLDY    36  21  55 S15G21    29.96F
$$
MNZ078>079-086>088-094>096-290600-
   Southeast Minnesota

CITY           SKY/WX    TMP DP  RH WIND       PRES   REMARKS
ROCHESTER      CLOUDY    32  19  58 S20       29.99F WCI  20
RED WING       CLOUDY    36  18  48 S14       29.98F
STANTON        PTCLDY    36  21  55 S21G26    29.94F
DODGE CENTER   MOCLDY    34  23  64 S22       29.96F WCI  22
WINONA         MOCLDY    36  18  48 S7        30.06F
AUSTIN         MOCLDY    34  19  55 S13G20    29.98F WCI  25
PRESTON        MOCLDY    32  18  57 S17G25    30.03F WCI  20
$$
ABBREVIATIONS USED IN REMARKS
   TC - TEMPERATURES IN CELSIUS
  WCI - WIND CHILL INDEX
   HX - HEAT INDEX
  VSB - VISIBILITY
$$


USA.gov is the U.S. government's official web portal to all federal, state and local government web resources and services.